Location: ?????
(55.6500°N, 37.2500°E)
Time: 14:36:13
(UTC+00:00)

Cosmos 2082 Rocket - Pass Details

Date: 19 May 2025
Orbit: 831 x 853 km, 71.0° (Epoch: 20 June)

Event Time Altitude Azimuth Distance (km) Brightness Sun altitude
Exits shadow 21:41:46 - 241° (WSW) 3,380 5.0 -14.3°
Rises 21:41:47 0° 241° (WSW) 3,374 5.0 -14.3°
Reaches altitude 10° 21:44:21 10° 249° (WSW) 2,444 4.4 -14.3°
Maximum altitude 21:49:38 41° 319° (NW) 1,208 3.4 -14.2°
Drops below altitude 10° 21:54:57 10° 29° (NNE) 2,465 5.8 -14.2°
Sets 21:57:34 0° 37° (NE) 3,405 6.5 -14.1°
